Hourly Weather Advorica

Today, 7 March, Sunday

Time Temperature Precipitation Wind Pressure Humidity
00:00 -8°C° 0.6 mm 7 mps 732 mmHg 90%
01:00 -8°C° 0.6 mm 7 mps 730 mmHg 91%
02:00 -7°C° 0 mm 8 mps 729 mmHg 91%
03:00 -7°C° 0.7 mm 7 mps 728 mmHg 92%
04:00 -6°C° 0.7 mm 7 mps 726 mmHg 92%
05:00 -6°C° 0.7 mm 7 mps 725 mmHg 93%
06:00 -6°C° 0.8 mm 6 mps 725 mmHg 88%
07:00 -6°C° 0.8 mm 6 mps 725 mmHg 83%
08:00 -8°C° 0 mm 6 mps 725 mmHg 82%
09:00 -8°C° 0 mm 6 mps 725 mmHg 70%
10:00 -6°C° 0 mm 5 mps 725 mmHg 59%
11:00 -6°C° 0 mm 5 mps 725 mmHg 47%
12:00 -5°C° 0.2 mm 4 mps 725 mmHg 59%
13:00 -7°C° 0.2 mm 4 mps 725 mmHg 70%
14:00 -7°C° 0.2 mm 4 mps 725 mmHg 82%
15:00 -8°C° 0.7 mm 4 mps 725 mmHg 80%
16:00 -8°C° 0.7 mm 4 mps 725 mmHg 77%
17:00 -7°C° 0.7 mm 3 mps 725 mmHg 74%
18:00 -8°C° 0.1 mm 3 mps 725 mmHg 78%
19:00 -8°C° 0.1 mm 3 mps 725 mmHg 82%
20:00 -9°C° 0.1 mm 3 mps 725 mmHg 86%
21:00 -9°C° 0 mm 3 mps 725 mmHg 87%
22:00 -11°C° 0 mm 4 mps 725 mmHg 88%
23:00 -11°C° 0 mm 4 mps 725 mmHg 89%

Tomorrow, 8 March, Monday

Time Temperature Precipitation Wind Pressure Humidity
00:00 -11°C° 0 mm 4 mps 726 mmHg 89%
01:00 -11°C° 0 mm 4 mps 726 mmHg 88%
02:00 -12°C° 0 mm 5 mps 727 mmHg 88%
03:00 -12°C° 0.1 mm 4 mps 727 mmHg 89%
04:00 -12°C° 0.1 mm 4 mps 728 mmHg 91%
05:00 -12°C° 0.1 mm 4 mps 728 mmHg 92%
06:00 -12°C° 0.1 mm 4 mps 729 mmHg 91%
07:00 -12°C° 0.1 mm 4 mps 730 mmHg 90%
08:00 -12°C° 0.1 mm 4 mps 731 mmHg 89%
09:00 -11°C° 0.1 mm 4 mps 732 mmHg 87%
10:00 -11°C° 0.1 mm 4 mps 733 mmHg 84%
11:00 -11°C° 0.1 mm 4 mps 733 mmHg 82%
12:00 -11°C° 0 mm 4 mps 734 mmHg 81%
13:00 -11°C° 0 mm 4 mps 735 mmHg 81%
14:00 -11°C° 0 mm 4 mps 735 mmHg 80%
15:00 -11°C° 0 mm 4 mps 736 mmHg 82%
16:00 -12°C° 0 mm 4 mps 736 mmHg 84%
17:00 -12°C° 0 mm 4 mps 737 mmHg 86%
18:00 -13°C° 0 mm 3 mps 738 mmHg 88%
19:00 -14°C° 0 mm 3 mps 738 mmHg 91%
20:00 -14°C° 0 mm 2 mps 739 mmHg 93%
21:00 -15°C° 0 mm 2 mps 739 mmHg 94%
22:00 -15°C° 0 mm 2 mps 740 mmHg 95%
23:00 -16°C° 0 mm 2 mps 740 mmHg 97%

Day after tomorrow, 9 March, Tuesday

Time Temperature Precipitation Wind Pressure Humidity
00:00 -17°C° 0 mm 2 mps 741 mmHg 97%
01:00 -17°C° 0 mm 2 mps 741 mmHg 97%
02:00 -18°C° 0 mm 2 mps 741 mmHg 98%
03:00 -16°C° 0 mm 1 mps 742 mmHg 98%
04:00 -17°C° 0 mm 1 mps 742 mmHg 98%
05:00 -17°C° 0 mm 1 mps 742 mmHg 98%
06:00 -17°C° 0 mm 1 mps 743 mmHg 96%
07:00 -18°C° 0 mm 2 mps 743 mmHg 94%
08:00 -18°C° 0 mm 2 mps 744 mmHg 92%
09:00 -16°C° 0 mm 2 mps 744 mmHg 87%
10:00 -15°C° 0 mm 2 mps 744 mmHg 82%
11:00 -14°C° 0 mm 2 mps 744 mmHg 77%
12:00 -13°C° 0 mm 2 mps 745 mmHg 74%
13:00 -12°C° 0 mm 2 mps 745 mmHg 71%
14:00 -10°C° 0 mm 2 mps 745 mmHg 68%
15:00 -10°C° 0 mm 1 mps 745 mmHg 73%
16:00 -11°C° 0 mm 1 mps 745 mmHg 77%
17:00 -11°C° 0 mm 1 mps 745 mmHg 82%
18:00 -12°C° 0 mm 1 mps 745 mmHg 83%
19:00 -13°C° 0 mm 1 mps 745 mmHg 85%
20:00 -13°C° 0 mm 1 mps 746 mmHg 87%
21:00 -15°C° 0 mm 2 mps 746 mmHg 87%
22:00 -16°C° 0 mm 2 mps 746 mmHg 87%
23:00 -17°C° 0 mm 3 mps 746 mmHg 87%

10 March, Wednesday

Time Temperature Precipitation Wind Pressure Humidity
00:00 -17°C° 0.2 mm 3 mps 746 mmHg 89%
01:00 -17°C° 0.2 mm 3 mps 746 mmHg 90%
02:00 -17°C° 0.2 mm 3 mps 746 mmHg 91%
03:00 -17°C° 0.3 mm 3 mps 746 mmHg 91%
04:00 -17°C° 0.3 mm 3 mps 746 mmHg 92%
05:00 -17°C° 0.3 mm 3 mps 746 mmHg 92%
06:00 -17°C° 0.1 mm 3 mps 746 mmHg 92%
07:00 -18°C° 0.1 mm 4 mps 746 mmHg 91%
08:00 -18°C° 0.1 mm 4 mps 746 mmHg 90%
09:00 -17°C° 0.1 mm 4 mps 747 mmHg 88%
10:00 -16°C° 0.1 mm 4 mps 747 mmHg 85%
11:00 -14°C° 0.1 mm 4 mps 747 mmHg 82%
12:00 -14°C° 0 mm 4 mps 747 mmHg 80%
13:00 -12°C° 0 mm 4 mps 747 mmHg 79%
14:00 -11°C° 0 mm 4 mps 747 mmHg 77%
15:00 -12°C° 0 mm 4 mps 747 mmHg 78%
16:00 -14°C° 0 mm 4 mps 747 mmHg 79%
17:00 -14°C° 0 mm 3 mps 747 mmHg 80%
18:00 -14°C° 0 mm 3 mps 747 mmHg 81%
19:00 -15°C° 0 mm 3 mps 748 mmHg 82%
20:00 -17°C° 0 mm 4 mps 748 mmHg 82%
21:00 -17°C° 0 mm 4 mps 748 mmHg 82%
22:00 -18°C° 0 mm 4 mps 748 mmHg 82%
23:00 -18°C° 0 mm 4 mps 748 mmHg 82%

11 March, Thursday

Time Temperature Precipitation Wind Pressure Humidity
00:00 -18°C° 0 mm 4 mps 748 mmHg 83%
01:00 -18°C° 0 mm 4 mps 748 mmHg 84%
02:00 -19°C° 0 mm 4 mps 748 mmHg 84%
03:00 -18°C° 0.1 mm 4 mps 748 mmHg 85%
04:00 -18°C° 0.1 mm 4 mps 747 mmHg 86%
05:00 -18°C° 0.1 mm 4 mps 747 mmHg 87%
06:00 -17°C° 0.1 mm 4 mps 747 mmHg 88%
07:00 -17°C° 0.1 mm 4 mps 747 mmHg 89%
08:00 -17°C° 0.1 mm 4 mps 747 mmHg 90%
09:00 -16°C° 0.1 mm 4 mps 746 mmHg 89%
10:00 -14°C° 0.1 mm 4 mps 746 mmHg 88%
11:00 -12°C° 0.1 mm 4 mps 746 mmHg 86%
12:00 -11°C° 0 mm 4 mps 745 mmHg 86%
13:00 -10°C° 0 mm 4 mps 745 mmHg 86%
14:00 -9°C° 0 mm 4 mps 745 mmHg 85%
15:00 -9°C° 0 mm 4 mps 744 mmHg 87%
16:00 -8°C° 0 mm 4 mps 744 mmHg 88%
17:00 -8°C° 0 mm 4 mps 744 mmHg 90%
18:00 -8°C° 0.1 mm 4 mps 743 mmHg 90%
19:00 -8°C° 0.1 mm 4 mps 743 mmHg 91%
20:00 -8°C° 0.1 mm 5 mps 742 mmHg 91%
21:00 -8°C° 0 mm 5 mps 742 mmHg 90%
22:00 -10°C° 0 mm 5 mps 741 mmHg 90%
23:00 -10°C° 0 mm 5 mps 741 mmHg 89%

12 March, Friday

Time Temperature Precipitation Wind Pressure Humidity
00:00 -10°C° 0 mm 5 mps 740 mmHg 88%
01:00 -10°C° 0 mm 6 mps 740 mmHg 87%
02:00 -10°C° 0 mm 6 mps 739 mmHg 85%
03:00 -10°C° 0 mm 6 mps 738 mmHg 85%
04:00 -11°C° 0 mm 7 mps 737 mmHg 85%
05:00 -12°C° 0 mm 7 mps 736 mmHg 85%
06:00 -11°C° 0.1 mm 7 mps 735 mmHg 87%
07:00 -11°C° 0.1 mm 8 mps 735 mmHg 88%
08:00 -10°C° 0.1 mm 8 mps 734 mmHg 89%
09:00 -10°C° 0.5 mm 8 mps 733 mmHg 89%
10:00 -10°C° 0.5 mm 8 mps 733 mmHg 89%
11:00 -8°C° 0.5 mm 8 mps 732 mmHg 89%
12:00 -8°C° 0.3 mm 7 mps 732 mmHg 90%
13:00 -7°C° 0.3 mm 7 mps 731 mmHg 90%
14:00 -7°C° 0.3 mm 7 mps 731 mmHg 90%
15:00 -5°C° 0.2 mm 6 mps 730 mmHg 91%
16:00 -5°C° 0.2 mm 6 mps 730 mmHg 92%
17:00 -5°C° 0.2 mm 5 mps 730 mmHg 92%
18:00 -4°C° 0.2 mm 5 mps 730 mmHg 93%
19:00 -4°C° 0.2 mm 5 mps 730 mmHg 94%
20:00 -3°C° 0.2 mm 4 mps 730 mmHg 95%
21:00 -3°C° 0.1 mm 4 mps 730 mmHg 96%
22:00 -2°C° 0.1 mm 4 mps 730 mmHg 96%
23:00 -2°C° 0.1 mm 4 mps 729 mmHg 97%
Show more